Terminal Aerodrome Forecast
Issued by NWS

Home | Current Version | Previous Version | Graphics & Text | Print | Product List | Glossary On
Versions: 1 2 3 4 5 6 7 8 9 10 11 12 13 14 15 16 17 18
000
FTUS43 KBIS 302300
TAFDIK
TAF
KDIK 302336Z 3100/3124 16015KT P6SM VCTS BKN050CB
      TEMPO 3102/3106 TSRA SCT015 BKN035CB
     FM310600 30010KT P6SM BKN015
     FM311300 30010KT P6SM SCT015 BKN050=

USA.gov is the U.S. government's official web portal to all federal, state and local government web resources and services.